DECAYED

STARLINK-1642, 46154 (Decayed)

Orbit data source: Space-Track

STARLINK-1642, 46154 was a payload satellite owned by SpaceX/Seattle (US) in LEO that was launched on Tue, 18 Aug 2020 UTC via an FALCON 9 launch vehicle from the Air Force Eastern Test Range (AFETR). Payload-class satellites include a variety of spacecraft equipped with specific instruments for various scientific and technological missions. These include communications satellites like Starlink; space stations such as the ISS; scientific satellites like the Hubble; Earth observation satellites from companies like Planet Labs, Umbra, and HawkEye 360; GPS; miniature CubeSats for education and research; and military/defense satellites.

Not visible in the next 10 days
Identifier
46154, 2020-057AP
Orbit
Decayed
Country
Flag of USUS
Related business
Manufacturer
SpaceX/Seattle
Mission
Decayed Commercial Communications
Bus & Motor
STARLINK, Unknown motor
Mass
260 kg wet, ~248 kg dry
Launch date (UTC)
2020-08-18 (6 years ago)
Launch vehicle
FALCON 9
Launch site
Air Force Eastern Test Range (AFETR)
Object type
Payload
Rocket body
Debris
Shape & HBR
Box + 1 Pan, 10.1 m
Radar Cross Section
13.562 m², Large (>1 m²)

Expand to show TLE details & history
Last TLE update: 2 months ago

TLE from 2 months ago
0 STARLINK-1642
1 46154U 20057AP  26051.07020781  .13038026  12477-4  31283-3 0  9991
2 46154  53.0212 318.5494 0006507 244.3153 115.7224 16.45810611304494
Epoch: 2026-02-20T01:41Z
TLE epoch observation values (Epoch: 2026-02-20T01:41:05.954Z)
Latitude
-0.00004°
Longitude
143.26213°
Altitude
153.166 km
Speed
7.815 km/s
True Right ascension
21h 14m 11s
True Declination
0° 00' 00"
Sunlit
Object was in daylight at epoch
Visualization orbit readout
Latitude
Unknown
Longitude
Unknown
Altitude
Unknown
Speed
Unknown
Apparent Right ascension
Unknown
Apparent Declination
Unknown
Sunlit
N/A
Visualization observer readout
Local Sidereal Time
14:59:27
Azimuth
Unknown
Elevation
Unknown
Doppler factor
Unknown
Orbital elements
Apogee altitude
154.932 km
Perigee altitude
146.435 km
Semi-major axis
6,528.82 km
Eccentricity
0.00065
Inclination
53.0212°
RAAN
318.5494°
Arg. of periapsis
244.3153°
True anomaly
115.78955°
Mean anomaly
115.7224°
Eccentric anomaly
115.75598°
Mean motion
4.11425 °/min
Orbital period
87.5 mins
BSTAR
0.00031283
Loading maneuver chart data...
Computing Atmospheric mass density...
Loading historical data...
Loading historical data...
Loading historical data...
Loading historical data...
Loading historical data...
Loading historical data...
Loading historical data...

Documentation

Showing up to 5 results
|